TimeEDT,TemperatureF,Dew PointF,Humidity,Sea Level PressureIn,VisibilityMPH,Wind Direction,Wind SpeedMPH,Gust SpeedMPH,PrecipitationIn,Events,Conditions,WindDirDegrees,DateUTC
12:51 AM,39.0,37.0,93,29.68,7.0,WSW,10.4,-,0.01,Rain,Light Rain,250,2012-11-01 04:51:00
1:51 AM,39.0,37.0,93,29.68,10.0,WSW,10.4,16.1,0.01,Rain,Light Rain,250,2012-11-01 05:51:00
2:51 AM,39.0,37.0,93,29.68,10.0,WSW,6.9,-,0.02,Rain,Light Rain,250,2012-11-01 06:51:00
3:51 AM,39.0,36.0,89,29.68,10.0,West,9.2,17.3,0.00,Rain,Light Rain,260,2012-11-01 07:51:00
4:51 AM,39.0,36.0,89,29.68,10.0,West,9.2,-,0.02,Rain,Light Rain,260,2012-11-01 08:51:00
5:51 AM,39.0,36.0,89,29.69,9.0,WSW,8.1,-,0.01,Rain,Light Rain,250,2012-11-01 09:51:00
6:45 AM,39.2,35.6,87,29.65,6.0,WSW,9.2,-,0.02,Rain,Light Rain,250,2012-11-01 10:45:00
6:51 AM,39.0,36.0,89,29.70,7.0,WSW,9.2,-,0.02,Rain,Light Rain,250,2012-11-01 10:51:00
7:45 AM,39.2,35.6,87,29.66,6.0,WSW,10.4,-,0.01,Rain,Light Rain,250,2012-11-01 11:45:00
7:51 AM,39.0,36.0,89,29.70,6.0,WSW,8.1,-,0.01,Rain,Light Rain,250,2012-11-01 11:51:00
8:51 AM,39.0,36.0,89,29.72,3.0,WSW,9.2,-,0.00,,Light Drizzle,250,2012-11-01 12:51:00
9:30 AM,39.2,37.4,93,29.69,5.0,WSW,8.1,-,0.00,Rain,Light Rain,240,2012-11-01 13:30:00
9:51 AM,39.0,37.0,93,29.74,6.0,WSW,9.2,16.1,0.01,Rain,Light Rain,250,2012-11-01 13:51:00
10:51 AM,39.9,37.0,89,29.75,4.0,WSW,10.4,18.4,0.00,Rain,Light Rain,250,2012-11-01 14:51:00
11:51 AM,41.0,37.9,89,29.74,7.0,West,6.9,18.4,0.01,Rain,Light Rain,260,2012-11-01 15:51:00
12:40 PM,41.0,37.4,87,29.70,10.0,WSW,12.7,18.4,0.00,,Light Drizzle,250,2012-11-01 16:40:00
12:51 PM,42.1,37.9,85,29.74,10.0,West,10.4,19.6,0.00,,Light Drizzle,260,2012-11-01 16:51:00
1:51 PM,41.0,37.0,86,29.73,4.0,West,12.7,20.7,0.00,Rain,Light Rain,260,2012-11-01 17:51:00
2:51 PM,41.0,37.0,86,29.72,10.0,West,11.5,21.9,0.01,Rain,Light Rain,260,2012-11-01 18:51:00
3:51 PM,39.9,37.0,89,29.73,10.0,West,9.2,-,0.00,,Overcast,270,2012-11-01 19:51:00
4:23 PM,39.2,37.4,93,29.69,6.0,West,9.2,-,0.00,,Light Drizzle,270,2012-11-01 20:23:00
4:51 PM,39.9,37.0,89,29.74,9.0,West,11.5,-,0.00,,Light Drizzle,270,2012-11-01 20:51:00
5:22 PM,39.2,35.6,87,29.71,6.0,West,9.2,18.4,0.00,,Light Drizzle,270,2012-11-01 21:22:00
5:51 PM,39.0,35.1,86,29.76,10.0,West,16.1,24.2,0.00,,Overcast,280,2012-11-01 21:51:00
6:14 PM,39.2,35.6,87,29.73,10.0,WNW,16.1,-,N/A,,Overcast,290,2012-11-01 22:14:00
6:51 PM,39.0,35.1,86,29.78,10.0,West,11.5,-,0.00,Rain,Light Rain,280,2012-11-01 22:51:00
7:43 PM,37.4,33.8,87,29.76,10.0,West,10.4,-,0.00,,Overcast,280,2012-11-01 23:43:00
7:51 PM,37.9,34.0,86,29.80,10.0,West,9.2,18.4,0.00,,Overcast,270,2012-11-01 23:51:00
8:29 PM,37.4,33.8,87,29.76,10.0,West,5.8,-,N/A,,Overcast,260,2012-11-02 00:29:00
8:51 PM,37.9,34.0,86,29.81,10.0,WSW,4.6,-,N/A,,Overcast,240,2012-11-02 00:51:00
9:42 PM,37.4,33.8,87,29.75,10.0,Calm,Calm,-,N/A,,Overcast,0,2012-11-02 01:42:00
9:51 PM,37.9,34.0,86,29.80,10.0,Calm,Calm,-,N/A,,Mostly Cloudy,0,2012-11-02 01:51:00
10:51 PM,37.9,33.1,83,29.79,10.0,SW,4.6,-,N/A,,Overcast,230,2012-11-02 02:51:00
11:51 PM,37.4,32.0,81,29.74,10.0,SW,5.8,-,N/A,,Overcast,230,2012-11-02 03:51:00